Radiation Dose at Monitoring Post of Fukushima Daini Nuclear Power Station
Date,Time,MP-1(microSv/h),MP-2(microSv/h),MP-3(microSv/h),MP-4(microSv/h),MP-5(microSv/h),MP-6(microSv/h),MP-7(microSv/h),Wind Direction,Wind Velocity(m/s),Rain
2022/04/28,00:00,0.155,0.146,0.225,0.219,0.221,0.123,0.077,north-northeast,7.9,No
2022/04/28,00:10,0.155,0.144,0.227,0.218,0.222,0.122,0.078,north,7.4,No
2022/04/28,00:20,0.154,0.144,0.225,0.219,0.222,0.122,0.079,north,6.5,No
2022/04/28,00:30,0.155,0.144,0.228,0.221,0.221,0.123,0.078,north,6.1,No
2022/04/28,00:40,0.156,0.144,0.226,0.219,0.223,0.123,0.079,north-northeast,6.5,No
2022/04/28,00:50,0.154,0.144,0.227,0.220,0.221,0.123,0.079,north-northeast,5.3,No
2022/04/28,01:00,0.155,0.145,0.227,0.218,0.224,0.122,0.078,north-northeast,4.5,No
2022/04/28,01:10,0.154,0.144,0.226,0.219,0.221,0.122,0.079,northeast,6.2,No
2022/04/28,01:20,0.154,0.144,0.225,0.220,0.222,0.124,0.078,north-northeast,8.1,No
2022/04/28,01:30,0.155,0.144,0.226,0.218,0.222,0.123,0.079,north-northeast,5.6,No
2022/04/28,01:40,0.154,0.144,0.226,0.220,0.221,0.123,0.078,north-northeast,5.9,No
2022/04/28,01:50,0.154,0.144,0.227,0.219,0.223,0.122,0.078,north-northeast,6.9,No
2022/04/28,02:00,0.155,0.144,0.227,0.219,0.220,0.123,0.078,north-northeast,7.8,No
2022/04/28,02:10,0.154,0.144,0.226,0.219,0.222,0.123,0.078,north,5.4,No
2022/04/28,02:20,0.154,0.145,0.227,0.219,0.223,0.123,0.079,north,5.6,No
2022/04/28,02:30,0.155,0.143,0.227,0.219,0.221,0.122,0.078,north,5.7,No
2022/04/28,02:40,0.155,0.144,0.225,0.219,0.223,0.122,0.078,north,6.0,No
2022/04/28,02:50,0.155,0.145,0.226,0.219,0.221,0.123,0.079,north,5.8,No
2022/04/28,03:00,0.155,0.143,0.226,0.220,0.222,0.123,0.078,north-northwest,5.3,No
2022/04/28,03:10,0.155,0.144,0.226,0.219,0.223,0.123,0.078,north,6.2,No
2022/04/28,03:20,0.154,0.144,0.226,0.220,0.220,0.123,0.078,north,5.1,No
2022/04/28,03:30,0.155,0.144,0.227,0.219,0.223,0.123,0.078,north-northwest,4.7,No
2022/04/28,03:40,0.154,0.144,0.226,0.218,0.221,0.123,0.077,north-northwest,4.9,No
2022/04/28,03:50,0.155,0.144,0.226,0.217,0.221,0.122,0.079,north,5.8,No
2022/04/28,04:00,0.155,0.142,0.226,0.220,0.222,0.122,0.078,north,5.2,No
2022/04/28,04:10,0.154,0.144,0.226,0.218,0.222,0.122,0.079,north-northwest,5.9,No
2022/04/28,04:20,0.155,0.144,0.226,0.218,0.223,0.122,0.079,north,5.5,No
2022/04/28,04:30,0.155,0.144,0.226,0.221,0.222,0.123,0.078,north,4.8,No
2022/04/28,04:40,0.155,0.144,0.225,0.220,0.221,0.123,0.078,north,4.2,No
2022/04/28,04:50,0.154,0.144,0.227,0.219,0.222,0.123,0.078,north,5.5,No
2022/04/28,05:00,0.155,0.145,0.228,0.219,0.220,0.122,0.078,north-northwest,4.8,No
2022/04/28,05:10,0.154,0.143,0.226,0.219,0.223,0.123,0.078,north,4.3,No
2022/04/28,05:20,0.155,0.145,0.226,0.219,0.221,0.123,0.077,north,5.3,No
2022/04/28,05:30,0.156,0.144,0.226,0.220,0.221,0.122,0.078,north,4.4,No
2022/04/28,05:40,0.153,0.143,0.226,0.218,0.223,0.123,0.078,north,6.2,No
2022/04/28,05:50,0.155,0.145,0.225,0.219,0.221,0.123,0.078,north,4.6,No
2022/04/28,06:00,0.153,0.145,0.227,0.219,0.222,0.123,0.078,north,5.6,No
2022/04/28,06:10,0.153,0.144,0.225,0.218,0.222,0.122,0.078,north,4.0,No
2022/04/28,06:20,0.155,0.143,0.226,0.219,0.221,0.123,0.078,north-northeast,4.0,No
2022/04/28,06:30,0.154,0.144,0.226,0.218,0.223,0.123,0.079,north,4.6,No
2022/04/28,06:40,0.154,0.144,0.225,0.219,0.220,0.122,0.078,north-northeast,4.3,No
2022/04/28,06:50,0.155,0.144,0.227,0.219,0.222,0.124,0.078,north-northeast,4.0,No
2022/04/28,07:00,0.154,0.144,0.227,0.219,0.222,0.123,0.079,north-northeast,3.1,No
2022/04/28,07:10,0.154,0.143,0.226,0.219,0.221,0.123,0.080,north,3.6,No
2022/04/28,07:20,0.154,0.144,0.225,0.218,0.222,0.123,0.079,north-northwest,2.6,No
2022/04/28,07:30,0.154,0.144,0.227,0.218,0.220,0.122,0.078,north,3.3,No
2022/04/28,07:40,0.155,0.144,0.227,0.220,0.222,0.122,0.078,north,3.9,No
2022/04/28,07:50,0.154,0.144,0.226,0.218,0.220,0.122,0.078,north-northwest,3.0,No
2022/04/28,08:00,0.154,0.144,0.227,0.220,0.223,0.122,0.077,north,3.0,No
2022/04/28,08:10,0.154,0.144,0.226,0.218,0.221,0.123,0.078,north,3.3,No
2022/04/28,08:20,0.154,0.144,0.226,0.220,0.223,0.122,0.078,north,3.3,No
2022/04/28,08:30,0.154,0.144,0.226,0.218,0.221,0.123,0.078,north,2.5,No
2022/04/28,08:40,0.154,0.144,0.227,0.219,0.221,0.122,0.078,north,2.1,No
2022/04/28,08:50,0.153,0.143,0.227,0.220,0.222,0.123,0.078,north-northwest,2.0,No
2022/04/28,09:00,0.154,0.144,0.225,0.219,0.220,0.122,0.078,northwest,1.6,No
2022/04/28,09:10,0.154,0.143,0.226,0.221,0.222,0.123,0.079,north-northwest,0.6,No
2022/04/28,09:20,0.153,0.143,0.225,0.219,0.223,0.122,0.078,west,1.5,No
2022/04/28,09:30,0.154,0.144,0.226,0.219,0.220,0.123,0.077,north-northeast,1.0,No
2022/04/28,09:40,0.153,0.143,0.225,0.218,0.221,0.122,0.078,north-northwest,0.7,No
2022/04/28,09:50,0.153,0.144,0.224,0.220,0.220,0.122,0.078,east-northeast,0.6,No
2022/04/28,10:00,0.154,0.143,0.226,0.219,0.221,0.123,0.079,east-northeast,1.2,No
2022/04/28,10:10,0.154,0.145,0.225,0.218,0.220,0.123,0.078,east-northeast,1.2,No
2022/04/28,10:20,0.154,0.143,0.226,0.219,0.221,0.122,0.078,-,CALM,No
2022/04/28,10:30,0.155,0.145,0.225,0.218,0.222,0.123,0.078,-,CALM,No
2022/04/28,10:40,0.154,0.143,0.227,0.219,0.219,0.122,0.078,east-northeast,0.7,No
2022/04/28,10:50,0.154,0.144,0.227,0.219,0.222,0.123,0.078,east,0.9,No
2022/04/28,11:00,0.153,0.145,0.227,0.219,0.222,0.123,0.079,east-northeast,1.1,No
2022/04/28,11:10,0.155,0.144,0.225,0.220,0.219,0.123,0.079,southeast,0.7,No
2022/04/28,11:20,0.154,0.144,0.228,0.217,0.223,0.123,0.078,-,CALM,No
2022/04/28,11:30,0.154,0.144,0.226,0.221,0.221,0.123,0.078,north-northeast,0.6,No
2022/04/28,11:40,0.155,0.144,0.226,0.219,0.220,0.123,0.078,northeast,1.0,No
2022/04/28,11:50,0.153,0.143,0.226,0.219,0.223,0.123,0.078,-,CALM,No
2022/04/28,12:00,0.156,0.143,0.225,0.219,0.220,0.122,0.078,east-northeast,1.1,No
2022/04/28,12:10,0.154,0.143,0.227,0.218,0.221,0.123,0.078,east,1.1,No
2022/04/28,12:20,0.154,0.144,0.225,0.221,0.223,0.123,0.077,east-northeast,1.2,No
2022/04/28,12:30,0.154,0.143,0.226,0.221,0.220,0.123,0.079,northeast,0.8,No
2022/04/28,12:40,0.154,0.144,0.227,0.218,0.220,0.122,0.078,northeast,0.8,No
2022/04/28,12:50,0.155,0.145,0.226,0.221,0.222,0.122,0.078,northeast,0.6,No
2022/04/28,13:00,0.153,0.144,0.226,0.218,0.220,0.123,0.079,east-northeast,1.3,No
2022/04/28,13:10,0.156,0.144,0.227,0.219,0.222,0.122,0.078,east,1.2,No
2022/04/28,13:20,0.154,0.143,0.225,0.221,0.222,0.123,0.078,east,1.4,No
2022/04/28,13:30,0.155,0.143,0.229,0.219,0.221,0.123,0.078,east,1.4,No
2022/04/28,13:40,0.155,0.144,0.226,0.219,0.219,0.122,0.078,east,2.0,No
2022/04/28,13:50,0.152,0.145,0.225,0.220,0.222,0.123,0.078,east,2.1,No
2022/04/28,14:00,0.153,0.144,0.228,0.221,0.221,0.122,0.079,east,3.0,No
2022/04/28,14:10,0.155,0.145,0.226,0.219,0.220,0.122,0.078,east-southeast,2.2,No
2022/04/28,14:20,0.153,0.143,0.225,0.219,0.219,0.124,0.078,southeast,1.9,No
2022/04/28,14:30,0.153,0.145,0.228,0.221,0.223,0.123,0.078,east-southeast,1.7,No
2022/04/28,14:40,0.155,0.145,0.227,0.220,0.222,0.123,0.079,east-southeast,1.6,No
2022/04/28,14:50,0.154,0.143,0.225,0.219,0.220,0.123,0.078,southeast,1.8,No
2022/04/28,15:00,0.153,0.146,0.229,0.221,0.222,0.123,0.078,east-southeast,1.8,No
2022/04/28,15:10,0.153,0.144,0.227,0.219,0.223,0.123,0.078,east-southeast,1.4,No
2022/04/28,15:20,0.155,0.144,0.227,0.221,0.220,0.124,0.078,south-southeast,3.2,No
2022/04/28,15:30,0.153,0.144,0.228,0.222,0.221,0.124,0.078,southeast,2.0,No
2022/04/28,15:40,0.154,0.144,0.227,0.221,0.224,0.124,0.078,south-southeast,2.6,No
2022/04/28,15:50,0.154,0.144,0.228,0.222,0.221,0.124,0.078,south-southeast,3.2,No
2022/04/28,16:00,0.153,0.145,0.227,0.222,0.221,0.123,0.079,south-southeast,2.5,No
2022/04/28,16:10,0.155,0.145,0.228,0.221,0.224,0.124,0.078,southeast,1.4,No
2022/04/28,16:20,0.155,0.145,0.229,0.221,0.221,0.124,0.079,southeast,0.6,No
2022/04/28,16:30,0.154,0.145,0.229,0.221,0.220,0.123,0.078,south-southeast,2.6,No
2022/04/28,16:40,0.155,0.145,0.229,0.221,0.223,0.124,0.079,east-southeast,1.0,No
2022/04/28,16:50,0.154,0.145,0.228,0.220,0.221,0.124,0.079,-,CALM,No
2022/04/28,17:00,0.156,0.145,0.228,0.222,0.221,0.124,0.078,southeast,0.6,No
2022/04/28,17:10,0.154,0.145,0.228,0.221,0.223,0.124,0.078,south-southeast,2.1,No
2022/04/28,17:20,0.155,0.146,0.229,0.221,0.221,0.123,0.078,south-southeast,2.6,No
2022/04/28,17:30,0.155,0.144,0.228,0.223,0.223,0.123,0.079,southeast,1.1,No
2022/04/28,17:40,0.156,0.145,0.227,0.221,0.222,0.123,0.078,southeast,2.7,No
2022/04/28,17:50,0.155,0.145,0.229,0.223,0.224,0.125,0.079,south-southeast,3.9,No
2022/04/28,18:00,0.155,0.146,0.227,0.221,0.223,0.123,0.079,south-southeast,4.8,No
2022/04/28,18:10,0.155,0.144,0.227,0.221,0.223,0.123,0.079,south-southeast,4.3,No
2022/04/28,18:20,0.155,0.146,0.228,0.222,0.224,0.124,0.078,south-southeast,3.1,No
2022/04/28,18:30,0.156,0.145,0.227,0.219,0.223,0.123,0.079,south-southeast,4.2,No
2022/04/28,18:40,0.154,0.146,0.228,0.222,0.223,0.123,0.078,south-southeast,5.5,No
2022/04/28,18:50,0.155,0.145,0.228,0.222,0.222,0.123,0.079,south,5.8,No
2022/04/28,19:00,0.154,0.146,0.229,0.222,0.223,0.123,0.079,south,4.9,No
2022/04/28,19:10,0.155,0.145,0.229,0.222,0.222,0.123,0.078,south,4.8,No
2022/04/28,19:20,0.156,0.146,0.228,0.221,0.222,0.124,0.079,south,5.1,No
2022/04/28,19:30,0.155,0.145,0.228,0.222,0.223,0.124,0.078,south,5.6,No
2022/04/28,19:40,0.155,0.145,0.228,0.222,0.222,0.123,0.079,south,5.4,No
2022/04/28,19:50,0.156,0.146,0.228,0.221,0.224,0.124,0.079,south,5.6,No
2022/04/28,20:00,0.155,0.145,0.227,0.222,0.223,0.124,0.079,south,5.4,No
2022/04/28,20:10,0.155,0.146,0.228,0.221,0.221,0.124,0.079,south,5.2,No
2022/04/28,20:20,0.155,0.145,0.230,0.221,0.224,0.124,0.079,south,5.7,No
2022/04/28,20:30,0.156,0.145,0.227,0.222,0.223,0.124,0.078,south-southwest,5.0,No
2022/04/28,20:40,0.155,0.145,0.229,0.223,0.222,0.124,0.079,south-southwest,4.8,No
2022/04/28,20:50,0.155,0.146,0.228,0.220,0.223,0.124,0.079,south,4.4,No
2022/04/28,21:00,0.155,0.145,0.228,0.222,0.223,0.123,0.079,south,4.1,No
2022/04/28,21:10,0.156,0.145,0.228,0.221,0.223,0.123,0.079,south,4.6,No
2022/04/28,21:20,0.155,0.144,0.229,0.220,0.222,0.124,0.079,south,4.0,No
2022/04/28,21:30,0.155,0.146,0.231,0.221,0.222,0.124,0.079,south,4.2,No
2022/04/28,21:40,0.155,0.146,0.228,0.222,0.225,0.124,0.079,south,3.8,No
2022/04/28,21:50,0.155,0.145,0.229,0.222,0.222,0.124,0.080,south,3.4,No
2022/04/28,22:00,0.156,0.146,0.229,0.220,0.223,0.124,0.079,south,3.9,No
2022/04/28,22:10,0.155,0.145,0.228,0.222,0.222,0.124,0.079,south,3.7,No
2022/04/28,22:20,0.157,0.146,0.227,0.221,0.222,0.124,0.079,south,3.5,No
2022/04/28,22:30,0.155,0.147,0.229,0.222,0.222,0.124,0.079,south,4.6,No
2022/04/28,22:40,0.155,0.145,0.228,0.222,0.223,0.125,0.079,south,5.1,No
2022/04/28,22:50,0.156,0.146,0.229,0.221,0.222,0.123,0.078,south,4.1,No
2022/04/28,23:00,0.157,0.144,0.228,0.222,0.223,0.124,0.079,south,4.3,No
2022/04/28,23:10,0.156,0.146,0.229,0.220,0.223,0.123,0.079,south,4.0,No
2022/04/28,23:20,0.156,0.145,0.230,0.220,0.222,0.124,0.079,south,3.3,No
2022/04/28,23:30,0.156,0.146,0.229,0.221,0.222,0.124,0.079,south,3.4,No
2022/04/28,23:40,0.156,0.144,0.228,0.222,0.223,0.123,0.079,south,3.9,No
2022/04/28,23:50,0.156,0.145,0.228,0.221,0.222,0.124,0.079,south,4.0,No
